Regional Weather Roundup
Issued by NWS

Home | Current Version | Previous Version | Graphics & Text | Print | Product List | Glossary On
Versions: 1 2 3 4 5 6 7 8 9 10 11 12 13 14 15 16 17 18 19 20 21 22 23 24 25 26 27 28 29 30 31 32 33 34 35 36 37 38 39 40 41 42 43 44 45 46 47 48 49 50
000
ASUS45 KABQ 290001
RWRNM
WEATHER ROUNDUP FOR NEW MEXICO
NATIONAL WEATHER SERVICE ALBUQUERQUE NM
500 PM MST FRI NOV 28 2014

NOTE: "FAIR" MEANS FEW OR NO CLOUDS BELOW 12,000 FEET AGL WITH NO
       SIGNIFICANT WEATHER OR OBSTRUCTIONS TO VISION.

      THIS PRODUCT IS RELEASED AS TWO VERSIONS.  ONE VERSION NEAR
      THE TOP OF THE HOUR CONTAINING PRELIMINARY DATA FROM ALBUQUERQUE
      AND OTHER STATIONS.  A FINAL VERSION WITH ADDITIONAL DATA IS
      ISSUED ABOUT 10 MINUTES AFTER THE HOUR.

NMZ501-503-504-510>518-290100-
NORTHWEST PLATEAU/NORTHCENTRAL MOUNTAINS

CITY           SKY/WX    TMP DP  RH WIND       PRES   REMARKS
FARMINGTON     CLEAR     57  13  17 CALM      30.06F
6HR MIN TEMP:  46; 6HR MAX TEMP:  62;

SANTA FE       CLEAR     50  15  24 W7        30.11F
6HR MIN TEMP:  50; 6HR MAX TEMP:  59;

TAOS           PTCLDY    52  19  28 S5        30.14F

$$
NMZ402-403-502-505>509-290100-
WESTCENTRAL MOUNTAINS/SOUTHWEST MOUNTAINS

CITY           SKY/WX    TMP DP  RH WIND       PRES   REMARKS
GALLUP         CLEAR     59   4  11 SW9       30.13S
6HR MIN TEMP:  54; 6HR MAX TEMP:  67;

SILVER CITY    CLEAR     61  18  18 S8        30.15S

$$
NMZ407-409-411-412-290100-
SOUTHERN DESERTS

CITY           SKY/WX    TMP DP  RH WIND       PRES   REMARKS
LORDSBURG      FAIR      64  21  19 E5        30.08S
DEMING         CLEAR     64  19  17 SW3       30.09F
6HR MIN TEMP:  57; 6HR MAX TEMP:  69;

HOLLOMAN AFB   CLEAR     63  20  19 S3        30.08S
T OR C         CLEAR     64  20  18 SW10      30.08F
6HR MIN TEMP:  55; 6HR MAX TEMP:  67;


$$
NMZ519>523-290100-
CENTRAL VALLEYS/CENTRAL HIGHLANDS

CITY           SKY/WX    TMP DP  RH WIND       PRES   REMARKS
ALBUQUERQUE    PTCLDY    58  20  22 S3        30.10S
6HR MIN TEMP:  51; 6HR MAX TEMP:  60;

DOUBLE EAGLE   CLEAR     52  16  24 CALM      30.12S
MORIARTY ARPT  FAIR      52  12  19 W8        30.12S
6HR MIN TEMP:  52; 6HR MAX TEMP:  69;

CLINES CORNERS CLEAR     52  10  18 W14       30.12S
6HR MIN TEMP:  52; 6HR MAX TEMP:  65;

BELEN          FAIR      53  20  27 SW6       30.09S
6HR MIN TEMP:  49; 6HR MAX TEMP:  63;

SOCORRO        FAIR      61  20  20 S7        30.07F
6HR MIN TEMP:  51; 6HR MAX TEMP:  66;


$$
NMZ524>526-539-540-290100-
SOUTHCENTRAL MOUNTAINS

CITY           SKY/WX    TMP DP  RH WIND       PRES   REMARKS
RUIDOSO        CLEAR     52  19  28 W9        30.18S

$$
NMZ527>531-290100-
NORTHEAST HIGHLANDS/NORTHEAST PLAINS

CITY           SKY/WX    TMP DP  RH WIND       PRES   REMARKS
LAS VEGAS      PTCLDY    55   9  16 SW12      30.06S
6HR MIN TEMP:  55; 6HR MAX TEMP:  72;

RATON          CLOUDY    54  10  17 W9        29.98S
6HR MIN TEMP:  51; 6HR MAX TEMP:  59;

CLAYTON        CLOUDY    64   4   9 SW8       29.91R
6HR MIN TEMP:  64; 6HR MAX TEMP:  77;


$$
NMZ532>537-290100-
EASTCENTRAL PLAINS

CITY           SKY/WX    TMP DP  RH WIND       PRES   REMARKS
TUCUMCARI      PTCLDY    67  14  13 SW12      29.91S
6HR MIN TEMP:  67; 6HR MAX TEMP:  81;

CANNON AFB     CLEAR     57  13  18 SW12      29.99S
6HR MIN TEMP:  57; 6HR MAX TEMP:  77;

CLOVIS AIRPORT CLEAR     59  10  14 SW13      29.98S

$$
NMZ028-029-538-290100-
SOUTHEAST PLAINS

CITY           SKY/WX    TMP DP  RH WIND       PRES   REMARKS
ROSWELL        CLEAR     63  30  28 CALM      29.99S
6HR MIN TEMP:  56; 6HR MAX TEMP:  71;

CARLSBAD       CLEAR     68  28  22 CALM      29.99F
6HR MIN TEMP:  57; 6HR MAX TEMP:  74;

HOBBS          CLEAR     61  23  23 S8        30.03F


$$


USA.gov is the U.S. government's official web portal to all federal, state and local government web resources and services.